Location: Wildlife_Club
(35.6000°N, 81.4330°W)
Time: 00:01:59
(UTC-04:00)

Courier 1B Rocket - Pass Details

Date: 23 June 2019
Orbit: 920 x 1202 km, 28.2° (Epoch: 12 October)

Event Time Altitude Azimuth Distance (km) Brightness Sun altitude
Exits shadow 04:09:17 23° 180° (S) 2,084 6.3 -19.7°
Maximum altitude 04:10:55 25° 160° (SSE) 1,971 6.3 -19.5°
Drops below altitude 10° 04:16:18 10° 107° (ESE) 2,786 7.7 -18.8°
Sets 04:19:22 0° 95° (E) 3,692 8.6 -18.4°
